STARLINK-32920, 62925

Orbit data source: Space-Track

STARLINK-32920, 62925 is a payload satellite owned by SpaceX/Seattle (US) in LEO that was launched on Sat, 08 Feb 2025 UTC via an FALCON 9 launch vehicle from the Air Force Eastern Test Range (AFETR). Payload-class satellites include a variety of spacecraft equipped with specific instruments for various scientific and technological missions. These include communications satellites like Starlink; space stations such as the ISS; scientific satellites like the Hubble; Earth observation satellites from companies like Planet Labs, Umbra, and HawkEye 360; GPS; miniature CubeSats for education and research; and military/defense satellites.

Loading next visibility...
Identifier
62925, 2025-027U
Orbit
LEO
Last TLE update
17 hours ago
Origin
Manufacturer
SpaceX/Seattle
Mission
Operational Commercial Communications
Bus & Motor
STARLINK V2M, Unknown motor
Mass
730 kg wet, ~700 kg dry
Launch date (UTC)
2025-02-08 (5 months ago)
Launch vehicle
FALCON 9
Launch site
Air Force Eastern Test Range (AFETR)
Object type
Payload
Rocket body
Debris
Shape & HBR
Box + 2 Pan, 29 m
Radar Cross Section
33.884 m², Large (>1 m²)

Expand to show TLE details & history

TLE from 17 hours ago
0 STARLINK-32920
1 62925U 25027U   25183.46088723  .00009614  00000-0  35845-3 0  9995
2 62925  42.9975 101.9719 0000649 274.5085  85.5692 15.27577128 23274
Epoch: 2025-07-02T11:03Z
TLE epoch observation values (Epoch: 2025-07-02T11:03:40.656Z)
Latitude
-0.00006°
Longitude
15.31078°
Altitude
482.798 km
Speed
7.626 km/s
True Right ascension
06h 47m 53s
True Declination
0° 00' 00"
Sunlit
Object was in daylight at epoch
Visualization orbit readout
Latitude
-22.07318°
Longitude
-142.9763°
Altitude
487.956 km
Speed
7.622 km/s
Apparent Right ascension
23h 09m 55s
Apparent Declination
-44° 34' 05"
Sunlit
Object is in full shadow
Visualization observer readout
Local Sidereal Time
15:26:11
Azimuth
117.838° SE
Elevation
-43.569°
Doppler factor
1
Orbital elements
Apogee altitude
485.449 km
Perigee altitude
484.558 km
Semi-major axis
6,863.14 km
Eccentricity
0.00006
Inclination
42.9975°
RAAN
101.9719°
Arg. of periapsis
274.5085°
True anomaly
Unknown
Mean anomaly
85.5692°
Eccentric anomaly
Unknown
Mean motion
3.81732 °/min
Orbital period
94.31 mins
BSTAR
0.00035845
Loading maneuver chart data...
Loading SW <> Apogee altitude chart data...
Loading historical data...
Loading historical data...
Loading historical data...
Loading historical data...
Loading historical data...
Loading historical data...
Loading historical data...

STARLINK-32920 Visibility forecast

Observer location: undefined°, undefined°

Span
Click to sort rows by Start time (UTC) header in descending order
Start Az.
Max El. time (UTC)
Max El. Az.
Max El.
End time (UTC)
End Az.
5 mins2025-07-03 21:48:58.364Z218.432° SW2025-07-03 21:50:58.364Z159.44° S36.54°2025-07-03 21:53:58.364Z81.946° E
5 mins2025-07-03 23:27:58.364Z276.865° WNW2025-07-03 23:29:58.364Z346.734° N40.916°2025-07-03 23:32:58.364Z68.824° E
5 mins2025-07-04 01:06:58.364Z294.977° NW2025-07-04 01:08:58.364Z348.066° N39.527°2025-07-04 01:11:58.364Z84.515° E
5 mins2025-07-04 02:45:58.364Z276.152° WNW2025-07-04 02:47:58.364Z222.227° SW38.792°2025-07-04 02:50:58.364Z131.063° SE
|